SKY MUSTER 1 (NBN1A) (40940 NORAD) Tracking and Keplerian Element Data

This shows tracking and keplerian element data for the satellite.

Feedback or suggestion? Click here.




ElementValue
Catalog40940
NameSKY MUSTER 1 (NBN1A)
Epoch Orbit2088
Epoch Day161.76840949
Epoch Year2021
RAAN330.7499
Inclination0.0174
Eccentricity0.0001534
Argument of Perigee109.8308
Mean Anonmoly235.6361
Mean Motion1.00271718
Decay Rate-2.65E-06
L11 40940U 15054A 21161.76840949 -.00000265 00000-0 00000-0 0 9994
L22 40940 0.0174 330.7499 0001534 109.8308 235.6361 1.00271718 20889

Live tracking and technical data element details for SKY MUSTER 1 (NBN1A) (NORAD 40940). SKY MUSTER 1 (NBN1A) can be tracked NOW for your location showing map with azimuth and elevation plus other details from your city location.

Track the satellite on the map from your city or location and see movement details for azimuth, elevation, latitude, longitude, range, height, and movement on the map or in text.







IsCatalogInMostPopularTable: catalog: 40940, numindb: 379
Update: records affected: 1



GetName: 40940 SKY MUSTER 1 (NBN1A)

Hit Count: updated at: Sun, 13 Jun 2021 03:13:11 GMT